Terminal Aerodrome Forecast
Issued by NWS

Current Version | Previous Version | Text Only | Print | Product List | Glossary On
Versions: 1 2 3 4 5 6 7 8 9 10 11 12 13 14 15 16 17 18 19 20 21 22 23 24 25 26 27 28 29 30 31 32 33 34 35 36 37 38 39 40 41 42 43 44 45 46 47 48 49 50
000
FTUS41 KCTP 202131 AAB
TAFBFD
TAF AMD
KBFD 202131Z 2022/2118 19007KT P6SM SCT025
      TEMPO 2023/2101 25008G20KT 1SM +TSRA BR OVC015CB
     FM210300 23003KT 3SM BR SCT005
     FM211400 27005KT P6SM SCT025 BKN050=

USA.gov is the U.S. government's official web portal to all federal, state and local government web resources and services.